EHI
0 0 0 0 0 0 0 0 0 0 3 8 12 14 14 15 19 22 25 30 35 37 38 41 45 45 43 43 45 50 55 56 53 52 51 52 50 45 42 41 39 39 38 37
0 0 0 0 0 0 0 1 1 2 8 14 16 16 14 14 18 22 25 30 33 33 34 37 41 42 41 43 43 46 49 49 48 49 50 50 47 44 43 42 41 40 38 37
0 0 0 0 1 1 1 1 2 7 15 20 20 18 13 13 18 21 24 28 30 29 30 33 37 38 39 42 42 43 44 43 44 46 46 43 39 39 41 41 41 39 37 35
0 0 0 0 2 2 1 2 5 12 19 22 21 16 13 14 16 19 23 27 30 30 30 30 33 35 37 39 41 40 40 40 40 40 38 34 33 35 38 38 38 36 33 32
0 0 0 1 2 3 3 5 10 15 20 22 18 13 13 14 15 17 22 27 29 31 30 29 31 32 33 35 36 35 35 35 33 30 30 29 29 32 36 37 36 32 30 30
0 0 1 2 2 4 6 10 16 19 21 21 18 14 14 15 15 17 22 26 28 27 27 26 27 27 27 29 30 29 28 27 24 21 22 23 24 25 29 34 35 31 29 29
0 0 1 3 4 6 11 15 18 21 21 21 20 19 18 17 16 17 22 26 26 25 23 21 22 23 22 23 24 25 23 20 16 14 14 16 17 18 20 25 29 28 27 26
0 1 2 4 6 9 13 16 18 19 21 21 21 20 20 19 17 17 20 22 22 21 20 20 21 21 19 19 19 20 18 16 13 11 10 11 12 12 14 18 22 23 21 19
1 2 3 4 6 8 10 13 16 18 19 19 18 18 18 17 17 16 16 16 16 16 18 20 20 18 16 15 15 14 12 12 12 12 11 11 11 12 13 15 18 18 16 15
3 3 4 4 4 4 6 10 14 16 17 16 15 16 15 14 13 13 13 13 12 14 17 18 16 14 11 11 10 9 9 10 12 13 13 12 13 12 12 13 14 14 14 14
3 3 3 3 4 3 5 8 10 11 12 12 12 13 12 10 9 9 10 11 12 13 15 15 13 10 7 6 6 6 7 9 12 12 11 11 11 9 8 8 8 10 12 13
4 4 4 4 5 4 3 4 5 6 7 8 8 9 8 6 6 7 7 8 9 10 11 11 9 6 4 4 4 4 5 6 8 9 9 9 7 5 3 2 2 4 6 8
3 4 5 5 5 4 2 2 2 3 4 5 4 4 4 4 4 3 4 5 5 6 8 7 5 3 2 3 3 3 3 3 4 5 6 6 5 2 1 0 0 0 1 2
2 3 4 4 4 4 3 2 2 2 3 3 2 1 2 2 1 1 1 2 3 4 4 4 3 1 1 3 3 2 1 1 2 3 3 3 2 1 0 0 0 0 0 0
3 3 3 3 3 3 3 2 2 1 1 1 1 0 1 1 1 1 1 1 2 3 2 2 1 1 0 1 2 1 0 0 1 1 1 1 0 0 0 0 0 0 0 0
2 2 2 2 2 2 1 1 1 1 1 2 2 1 1 2 2 2 1 1 1 2 2 1 1 0 0 0 0 0 0 0 0 0 0 0 0 0 0 0 0 0 0 0
1 1 1 1 1 1 0 0 0 0 1 2 2 2 2 2 2 2 2 2 1 1 2 1 0 0 0 0 0 0 0 0 0 0 0 0 0 0 0 0 0 0 0 0
1 1 1 0 0 0 0 0 0 0 0 1 1 1 1 1 1 1 1 1 1 0 1 1 0 0 0 0 0 0 0 0 0 0 0 0 0 0 0 0 0 0 0 0
2 2 1 0 0 0 0 0 0 0 0 0 0 0 0 0 0 0 0 0 0 0 0 0 0 0 0 0 0 0 0 0 0 0 0 0 0 0 0 0 0 0 0 0
2 1 1 0 0 0 0 0 0 0 0 0 0 0 0 0 0 0 0 0 0 0 0 0 0 0 0 0 0 0 0 0 0 0 0 0 0 0 0 0 0 0 0 0
1 0 0 0 0 0 0 0 0 0 0 0 0 0 0 0 0 0 0 0 0 0 0 0 0 0 0 0 0 0 0 0 0 0 0 0 0 0 0 0 0 0 0 0
0 0 0 0 0 0 0 0 0 1 0 0 0 0 0 0 0 0 0 0 0 0 0 0 0 0 0 0 0 0 0 0 0 0 0 0 0 0 0 0 0 0 0 0
0 0 0 0 0 0 0 0 0 0 0 0 0 0 0 0 0 0 0 0 0 0 0 0 0 0 0 0 0 0 0 0 0 0 0 0 0 0 0 0 0 0 0 0
1 0 0 0 0 0 0 0 0 0 0 0 0 0 0 0 0 0 0 0 0 0 0 0 0 0 0 0 0 0 0 0 0 0 0 0 0 0 0 0 0 0 0 0
2 1 0 0 0 0 0 0 0 0 0 0 0 0 0 0 0 0 0 0 0 0 0 0 0 0 0 0 0 0 0 0 0 0 0 0 0 0 0 0 0 0 0 0
2 1 0 0 0 0 0 0 0 0 0 0 0 0 0 0 0 0 0 0 0 0 0 0 0 0 0 0 0 0 0 0 0 0 0 0 0 0 0 0 0 0 0 0
1 0 0 0 0 0 0 0 0 0 0 0 0 0 0 0 0 0 0 0 0 0 0 0 0 0 0 0 0 0 0 0 0 0 0 0 0 0 0 0 0 0 0 0
Wind_Speed
10 8 8 10 11 12 13 13 14 12 10 5 2 1 0 1 2 2 3 3 3 3 4 4 4 4 4 4 5 6 7 7 7 6 6 5 5 6 6 6 7 7 7 7
11 11 11 11 11 12 13 13 13 12 8 2 1 1 2 1 2 2 2 2 3 3 3 4 4 3 3 4 4 5 5 6 6 5 5 4 4 5 5 6 6 7 7 7
11 10 11 14 11 12 11 10 11 11 6 2 3 2 2 1 1 1 2 2 2 2 2 2 3 3 3 3 4 5 5 5 4 4 4 4 4 5 6 6 6 7 7 7
9 9 16 4 1 6 8 7 6 5 3 3 1 1 1 0 0 1 2 1 1 1 2 2 2 3 2 3 3 4 4 3 3 3 3 3 4 5 5 5 5 5 6 6
9 12 12 5 2 4 7 6 3 3 3 2 1 2 3 2 2 1 1 1 1 1 2 2 2 2 2 2 2 3 3 2 2 2 2 3 4 4 4 4 4 5 5 5
10 12 12 3 1 3 7 8 1 1 2 2 3 4 2 3 2 2 1 1 1 1 2 2 2 1 1 1 1 1 1 1 1 2 2 2 3 3 4 4 4 4 4 4
13 12 7 2 2 4 8 1 2 2 2 3 3 3 3 2 1 1 1 2 1 2 2 2 2 1 1 1 1 1 1 1 1 1 2 2 2 2 3 3 3 3 3 4
11 12 7 3 1 2 3 3 1 2 2 2 2 1 1 1 1 1 1 1 1 1 2 2 1 1 1 1 1 1 1 0 1 1 2 1 2 2 3 3 3 3 3 3
4 2 4 3 2 3 2 1 2 2 3 2 2 1 1 1 1 1 0 1 1 1 1 1 1 0 0 1 1 1 0 1 1 1 1 2 2 2 3 3 2 2 2 3
5 3 1 0 1 1 2 2 3 3 3 3 3 2 2 1 1 1 0 0 1 1 1 2 2 2 1 1 1 1 1 1 1 2 2 1 2 2 2 2 2 2 2 3
7 4 3 3 1 1 2 3 3 3 2 2 3 3 2 2 2 1 1 1 1 0 1 1 2 2 2 1 1 1 1 1 1 1 1 1 1 2 2 2 2 2 2 3
6 3 4 3 3 3 3 3 2 2 3 3 2 3 2 2 2 2 1 1 1 1 0 1 1 1 1 1 1 1 1 1 2 1 1 1 1 0 3 1 2 2 2 4
6 5 5 5 5 4 4 3 3 3 3 3 3 3 3 2 2 2 1 1 1 1 1 1 1 1 1 1 1 1 2 2 2 2 1 2 2 2 1 0 1 0 1 1
5 5 6 5 4 4 4 3 2 2 2 2 2 2 2 2 1 1 1 1 1 1 2 2 1 1 1 1 1 2 2 2 2 2 2 2 2 2 2 2 1 1 1 1
5 5 5 4 4 4 3 3 3 2 2 2 2 2 2 2 2 1 1 1 1 1 2 2 2 2 2 1 1 2 2 2 2 2 2 2 2 2 2 2 2 1 1 1
4 4 4 4 4 3 3 3 3 3 2 1 1 2 1 1 1 1 1 1 1 2 2 2 3 3 2 2 2 2 1 1 2 2 2 2 2 2 2 2 2 1 1 1
4 4 3 3 2 2 2 1 1 2 1 1 2 2 1 1 1 1 2 2 2 2 2 2 2 2 2 2 2 2 1 1 2 2 2 2 2 2 2 2 1 1 1 1
2 2 2 2 2 1 0 0 0 0 1 1 1 1 1 1 1 1 1 1 1 2 2 3 3 2 2 2 2 2 1 1 1 1 1 1 2 2 1 1 1 1 1 1
1 1 1 1 1 1 0 0 1 1 1 1 1 1 1 1 1 1 1 1 1 1 2 3 3 2 2 3 3 2 1 1 1 1 0 0 1 1 0 1 1 1 1 1
1 1 1 1 1 1 1 1 2 2 1 1 1 1 1 1 1 1 1 1 2 2 2 3 2 2 2 2 3 1 1 1 1 1 1 1 1 1 1 0 1 1 1 1
2 3 3 2 2 2 2 2 2 2 1 1 1 1 1 1 1 1 1 2 3 3 2 2 2 1 1 2 2 1 0 0 1 1 1 1 1 1 1 1 1 1 0 0
3 3 3 3 3 3 3 2 2 2 2 2 2 2 2 2 2 2 2 2 2 2 2 1 2 3 3 3 1 1 1 1 1 1 1 1 1 1 1 1 1 1 1 1
2 2 3 3 3 3 3 2 2 2 2 2 2 2 2 2 2 2 2 2 1 2 2 2 4 3 4 2 1 1 1 1 1 1 1 1 1 1 1 1 1 1 1 1
3 3 3 3 3 3 2 2 2 2 2 2 1 1 1 0 1 1 2 2 1 2 2 3 2 3 4 1 1 1 1 1 1 1 1 1 1 1 1 1 1 2 1 2
3 3 3 2 2 2 2 2 2 2 2 2 2 2 1 1 1 1 1 1 1 1 1 1 0 2 2 2 1 1 1 1 1 1 1 1 1 1 1 1 2 2 1 1
2 2 2 2 2 1 1 1 1 1 1 2 2 1 1 1 1 1 1 1 1 0 1 0 0 2 1 1 2 2 1 1 0 1 0 1 1 1 1 2 2 2 2 1
2 2 2 2 2 1 1 1 1 1 1 1 2 2 1 1 1 1 1 0 0 0 1 1 0 1 1 1 1 1 1 1 1 1 1 1 1 1 1 1 1 1 1 1
Wind_Direction
260 259 249 243 235 230 239 253 261 262 259 251 264 254 185 158 122 115 113 112 121 125 129 138 137 149 168 178 176 179 182 185 190 193 200 203 206 209 210 212 215 214 217 218
248 242 242 243 240 240 243 250 256 262 263 274 251 215 198 181 154 133 116 109 117 127 131 137 141 151 159 168 176 181 185 187 185 186 189 197 208 212 213 215 219 215 216 216
250 242 245 237 238 241 242 249 257 255 254 211 208 205 225 202 154 143 120 104 108 117 131 146 151 157 165 166 169 173 177 180 177 179 186 203 216 218 216 215 216 218 219 217
251 240 241 236 253 248 243 247 257 264 240 221 210 212 218 280 43 24 44 52 73 89 99 115 123 130 147 149 157 165 164 163 163 176 176 187 207 215 217 219 217 220 227 225
246 240 240 212 221 249 241 233 250 245 218 209 187 185 167 85 52 42 33 39 61 64 84 90 105 112 129 132 138 155 155 152 162 185 184 196 210 218 223 227 230 229 230 232
240 248 248 227 128 268 253 227 130 288 217 218 234 239 143 70 41 41 48 54 79 92 95 100 92 103 127 116 117 137 143 150 179 211 219 216 226 232 233 233 234 238 234 236
239 243 244 34 19 234 238 282 53 283 265 261 272 319 34 56 35 37 61 59 84 103 101 101 97 94 103 94 76 51 59 129 193 232 241 237 246 246 243 235 232 243 244 229
236 242 233 49 235 270 3 23 10 332 318 315 341 28 80 86 81 79 74 56 58 75 77 81 91 120 131 87 52 53 50 289 252 256 272 267 241 243 242 233 222 231 237 226
276 286 48 28 12 21 1 348 347 337 341 332 317 306 334 360 30 42 34 48 56 67 58 46 36 41 80 50 40 46 317 283 265 251 251 245 239 232 227 226 228 228 238 239
252 229 220 33 28 18 13 356 347 347 339 329 312 302 299 301 307 300 297 18 59 71 41 19 14 5 29 12 324 280 264 262 240 234 238 234 259 258 252 243 244 245 258 267
247 241 244 237 267 332 338 335 344 350 336 325 308 296 300 295 291 291 310 351 344 340 35 32 27 16 15 9 326 296 293 274 260 249 246 240 285 335 299 314 305 275 277 280
256 250 262 265 280 288 288 291 302 312 316 315 304 299 300 290 291 290 284 286 286 290 24 30 37 20 1 344 309 262 251 261 270 256 232 232 206 27 45 8 17 350 301 285
272 276 281 282 283 279 278 285 294 293 301 310 308 299 296 290 278 281 294 298 308 324 334 333 317 311 312 300 273 270 273 275 276 270 251 241 234 235 247 151 140 298 333 316
256 256 257 259 271 275 278 284 286 285 296 303 309 309 304 300 303 299 300 313 322 324 309 297 296 307 311 301 291 282 279 276 267 265 266 258 258 259 265 268 263 239 165 172
253 247 245 252 269 269 265 260 254 257 278 285 303 320 328 336 338 334 330 314 327 319 316 319 319 322 327 300 277 274 281 283 291 295 284 279 279 276 269 265 260 245 217 178
239 234 231 234 248 258 260 253 252 267 266 273 321 333 346 355 353 352 350 347 343 343 347 341 334 335 331 302 279 265 273 322 284 283 284 281 276 269 268 265 257 245 242 242
229 228 221 224 236 255 273 283 280 284 290 320 360 16 35 39 31 26 27 31 29 17 1 348 340 340 330 311 291 285 281 222 227 250 262 281 288 285 285 279 272 268 271 331
237 239 233 235 238 243 288 329 248 117 54 41 24 24 34 33 20 26 39 49 52 37 18 358 347 333 329 324 311 304 287 275 276 293 297 307 304 298 300 292 281 273 256 172
178 174 168 188 250 268 304 351 66 74 65 53 66 70 37 19 14 21 21 22 22 24 14 6 349 327 346 349 320 280 286 298 308 324 312 217 251 263 280 299 312 313 309 274
108 117 133 138 125 123 133 125 115 106 98 95 104 109 95 67 57 58 52 42 28 16 5 349 335 354 357 360 314 304 325 315 314 333 345 347 5 19 7 348 325 308 300 311
111 117 118 114 103 90 98 111 115 106 91 92 106 100 73 55 56 55 49 51 40 15 1 333 314 335 351 350 291 295 21 19 348 356 22 21 19 12 4 356 331 319 298 261
97 103 102 96 98 97 90 93 96 89 77 84 85 81 94 89 73 59 40 20 20 356 327 348 3 22 359 322 301 345 29 22 12 33 45 40 31 15 11 355 337 343 354 353
88 94 97 97 95 94 95 97 97 93 84 85 81 72 61 39 26 30 42 30 17 352 326 14 27 14 321 301 337 348 34 45 35 34 36 33 29 10 358 345 344 352 353 347
96 95 97 98 93 90 87 86 84 88 94 100 99 82 61 66 48 45 49 79 29 331 350 45 27 325 294 304 351 3 36 60 67 35 5 13 18 357 341 337 339 337 334 322
97 103 107 103 97 96 106 127 136 130 126 111 107 105 91 29 22 40 37 74 78 310 1 77 252 295 299 356 8 10 2 11 22 2 332 336 335 345 334 324 323 317 311 307
86 81 69 62 56 65 104 121 122 111 115 104 94 96 96 101 104 113 121 99 66 339 319 318 242 254 311 348 352 354 358 38 240 251 333 345 345 335 337 344 339 334 337 332
114 103 99 91 83 79 93 99 99 96 89 89 87 85 89 89 76 63 60 14 346 329 311 286 274 323 338 337 352 353 341 343 348 343 336 345 346 331 335 322 314 325 312 305